STARLINK-1663, 46535

Orbit data source: Space-Track

STARLINK-1663, 46535 is a payload satellite owned by SpaceX/Seattle (US) in LEO that was launched on Tue, 06 Oct 2020 UTC via an FALCON 9 launch vehicle from the Air Force Eastern Test Range (AFETR). Payload-class satellites include a variety of spacecraft equipped with specific instruments for various scientific and technological missions. These include communications satellites like Starlink; space stations such as the ISS; scientific satellites like the Hubble; Earth observation satellites from companies like Planet Labs, Umbra, and HawkEye 360; GPS; miniature CubeSats for education and research; and military/defense satellites.

Loading next visibility...
Identifier
46535, 2020-070D
Orbit
LEO
Country
Flag of USUS
Related business
Manufacturer
SpaceX/Seattle
Mission
Partially operational Commercial Communications
Bus & Motor
STARLINK, Unknown motor
Mass
260 kg wet, ~248 kg dry
Launch date (UTC)
2020-10-06 (5 years ago)
Launch vehicle
FALCON 9
Launch site
Air Force Eastern Test Range (AFETR)
Object type
Payload
Rocket body
Debris
Shape & HBR
Box + 1 Pan, 10.1 m
Radar Cross Section
13.562 m², Large (>1 m²)

Expand to show TLE details & history
Last TLE update: 8 hours ago

TLE from 8 hours ago
0 STARLINK-1663
1 46535U 20070D   26073.30779097  .00091316  00000-0  86927-3 0  9997
2 46535  53.0429 112.6414 0001224 101.3354 258.7799 15.66092903300802
Epoch: 2026-03-14T07:23Z
TLE epoch observation values (Epoch: 2026-03-14T07:23:13.139Z)
Latitude
0.00001°
Longitude
-170.09418°
Altitude
371.159 km
Speed
7.688 km/s
True Right ascension
07h 30m 33s
True Declination
0° 00' 00"
Sunlit
Object was in full shadow at epoch
Visualization orbit readout
Latitude
Unknown
Longitude
Unknown
Altitude
Unknown
Speed
Unknown
Apparent Right ascension
Unknown
Apparent Declination
Unknown
Sunlit
N/A
Visualization observer readout
Local Sidereal Time
20:16:21
Azimuth
Unknown
Elevation
Unknown
Doppler factor
Unknown
Orbital elements
Apogee altitude
371.203 km
Perigee altitude
369.551 km
Semi-major axis
6,748.514 km
Eccentricity
0.00012
Inclination
53.0429°
RAAN
112.6414°
Arg. of periapsis
101.3354°
True anomaly
258.76614°
Mean anomaly
258.7799°
Eccentric anomaly
258.77302°
Mean motion
3.91499 °/min
Orbital period
91.95 mins
BSTAR
0.00086927
Loading maneuver chart data...
Computing Atmospheric mass density...

Documentation

Showing up to 5 results
|